Regional Weather Roundup
Issued by NWS Newport/Morehead, NC

Current Version | Previous Version | Graphics & Text | Print | Product List | Glossary Off
Versions: 1 2 3 4 5 6 7 8 9 10 11 12 13 14 15 16 17 18 19 20 21 22 23 24 25 26 27 28 29 30 31 32 33 34 35 36 37 38 39 40 41 42 43 44 45 46 47 48 49 50

000
ASUS42 KMHX 140913
RWRMHX
WEATHER ROUNDUP FOR EASTERN NORTH CAROLINA
NATIONAL WEATHER SERVICE NEWPORT/MOREHEAD CITY NC
400 AM EST SUN FEB 14 2016

NOTE: "FAIR" INDICATES FEW OR NO CLOUDS BELOW 12,000 FEET
WITH NO SIGNIFICANT WEATHER AND/OR OBSTRUCTIONS TO VISIBILITY

NCZ015>017-031-032-045>047-102-103-141000-
NORTH COAST

CITY           SKY/WX    TMP DP  RH WIND       PRES   REMARKS
EDENTON        PTCLDY    19   1  46 N8        30.48R
ELIZABETH CITY CLEAR     18   1  47 N13       30.47R WCI   5
KITTY HAWK     SUNNY     20   2  46 NW10G20   30.43R WCI   9
MANTEO         CLEAR     21   7  54 N17G24    30.43S WCI   6

$$

NCZ045>047-081-094-103-104-141000-
CENTRAL COAST

CITY           SKY/WX    TMP DP  RH WIND       PRES   REMARKS
FRISCO         CLEAR     24  11  57 N8        30.42R
SWANQUARTER      N/A     19 N/A N/A N1        30.44R

$$

NCZ095-097-098-100-101-141000-
SOUTHERN COAST

CITY           SKY/WX    TMP DP  RH WIND       PRES   REMARKS
BEAUFORT       CLEAR     23   8  52 N12       30.43R WCI  12
CEDAR ISLAND     N/A     25 N/A N/A N20G30    30.50R WCI  11
JACKSONVILLE   PTCLDY    22   2  42 N10       30.44R WCI  11
PINEY ISLAND   SUNNY    N/A N/A N/A N15G22    30.44R
WILMINGTON     CLEAR     24   3  40 N10       30.44R WCI  14


$$

NCZ011>013-027>030-043-044-078>080-089-090>093-098-141000-
COASTAL PLAIN

CITY           SKY/WX    TMP DP  RH WIND       PRES   REMARKS
AHOSKIE        PTCLDY    16  -1  47 N3        30.50R
CLINTON        PTCLDY    22   2  42 N8        30.46R
ELIZABETHTOWN  PTCLDY    22   5  47 CALM      30.45R
GOLDSBORO      CLEAR     21  -2  35 N7        30.45R
GREENVILLE     CLEAR     19   3  49 N5        30.48R
HAVELOCK       CLEAR     23   6  48 NE16      30.45R WCI  10
KENANSVILLE    PTCLDY    21   1  41 N7        30.47R
KINSTON        CLEAR     21   4  47 N10       30.48R WCI  10
NEW BERN       CLEAR     21   5  50 N13       30.47R WCI   9
RICHLANDS      PTCLDY    21   0  39 NW5       30.45R
ROCKY MOUNT    CLEAR     18   1  47 N8        30.49R
WASHINGTON     PTCLDY    18   1  46 N6        30.48R
WHITEVILLE     CLEAR     25   3  39 N5        30.45R

$$

AMZ130-135-150-152-154-156-158-170-250-252-270-ANZ085-086-088-633-658-670-141000-
MARINE OBSERVATIONS

STATION/POSITION TIME  TEMP    WIND        PRES    WAVE   SWELL
                       AIR SEA DIR/SP/G            HT/PER HT/PER
                 (UTC) (F)     (DEG/KT/KT) (MB)    (FT/S) (FT/S)
CHESAPEAKE LIGHT 0900   19     340/ 23/ 28 1031.4
64 E VA BEACH    0850   24 50  340/ 23/ 29 1028.9    8/ 8   5/ 8
DUCK             0800   22     340/ 18/ 23 1029.5
2 E DUCK         0811      42                N/A     6/ 6
OREGON INLET     0800   22 38  320/ 14/ 18 1029.9
13E OREGON INLT  0900      44                N/A     9/ 7
HATTERAS CG      0800   26 40  350/ 23/ 27 1029.1
DIAMOND BUOY     0850   30 72  360/ 23/ 29 1028.9    6/ 7   2/16
CAPE LOOKOUT     NOT AVBL
BEAUFORT LAB     0800   26 43  360/ 11/ 17 1028.7
30 SE NEW RVR IN 0808   32 60              1027.8
30 SE NEW RVR IN 0825      60                N/A     6/ 5
27 SE WRIGHTSVLE 0808   33 59  360/ 21/ 29 1027.8
5 SE WRIGHTSVLE  0808   29 50   20/ 21/ 29 1029.9
225 S CAPE HAT   0850   47 67  360/ 16/ 21   N/A     9/ 8   7/ 8
41 SE CHARLESTON 0850   44 65   30/ 16/ 21 1027.5    4/ 5   2/ 9

$$



USA.gov is the U.S. government's official web portal to all federal, state and local government web resources and services.